Torna al catalogo

SL-8 DEB

AttivoLEO
NORAD 22025·DEBRIS·🇷🇺 Russia

Lanciato Feb 12, 1991 da Plesetsk Cosmodrome

Loading…

Prossimi Passaggi (prossime 24 ore)

TLE

AggiornatoSource: Space-Track

Epoca: Sep 13, 2026, 16:35 UTC

1 22025U 91009CJ  26256.69126725  .00000003  00000-0  15644-3 0  9995
2 22025  73.9433 347.6174 0143193 239.9931 273.6159 12.31725095596245

Traccia SL-8 DEB in tempo reale con AllMySat

Download on the App Store